Lid_Strength_Index
0 1 0 1 6 7 9 8 6 7 7 5 4 5 6 5 6 10 1 -0 -1 -0 -1 -1 -2 -2 -2 -1 -1 -2 -2 -2 -2 -2 -2 -2 -2 -2 -2 -2 -3 -2 -2 -2 -2 -2 -2 -2 -2
2 2 1 3 8 10 9 7 7 6 5 4 4 4 5 6 3 3 2 -0 -1 -1 -1 -1 -1 -2 -2 -2 -2 -2 -2 -2 -2 -2 -2 -2 -2 -2 -2 -2 -2 -3 -2 -2 -2 -2 -2 -2 -2
3 2 3 6 8 10 9 7 6 5 4 4 5 4 4 5 3 2 0 -0 -1 -1 -1 -1 -1 -2 -2 -2 -2 -1 -2 -2 -2 -2 -2 -2 -2 -2 -2 -2 -2 -2 -2 -2 -2 -2 -2 -2 -2
2 3 3 7 9 7 7 6 5 5 5 4 4 6 3 2 2 1 -0 -1 -0 -1 -1 -1 -1 -2 -2 -2 -2 -1 -2 -2 -2 -2 -2 -2 -2 -2 -2 -2 -2 -2 -2 -2 -2 -2 -2 -2 -2
2 3 7 8 8 7 6 5 5 5 5 5 4 6 5 2 1 0 0 -0 0 -0 -1 -1 -1 -1 -2 -2 -2 -2 -2 -2 -2 -2 -2 -2 -3 -2 -2 -2 -2 -2 -2 -2 -2 -2 -2 -2 -2
5 4 8 9 8 7 6 5 5 5 5 5 5 5 5 2 1 1 -0 -0 -1 -0 -1 -1 0 -1 -1 -2 -2 -2 -2 -2 -2 -2 -2 -2 -2 -2 -2 -2 -2 -2 -2 -2 -2 -2 -2 -2 -2
6 7 8 8 8 8 7 5 5 6 6 6 4 6 4 3 1 0 0 -0 -1 -1 -0 -1 -1 -1 -0 -1 -1 -1 -2 -2 -2 -2 -2 -2 -2 -3 -2 -2 -2 -2 -2 -2 -2 -2 -2 -2 -2
5 6 8 7 8 8 6 5 5 5 6 3 3 6 5 3 1 0 0 0 0 -0 -0 -1 -1 -1 -1 -1 0 -0 -1 -1 -2 -2 -1 -1 -1 -2 -2 -2 -2 -2 -2 -2 -2 -2 -2 -2 -2
4 8 9 8 8 7 5 6 5 5 5 4 3 4 3 1 1 2 2 1 1 0 0 -0 -1 -1 -1 -1 -0 0 0 -0 -1 -1 -0 -0 -1 -1 -1 -1 -2 -2 -2 -2 -2 -2 -2 -1 -1
6 7 7 6 5 6 6 6 6 6 6 5 4 3 2 2 2 3 3 3 2 2 1 1 -0 -1 -1 -1 -1 -1 -1 -1 -1 -2 -1 -1 -1 -1 -1 -0 -1 -1 -1 -1 -1 -0 -0 -1 -1
6 8 7 7 6 5 6 6 5 6 7 5 5 4 3 3 3 3 3 2 2 1 1 0 -0 -1 -1 -1 -1 -1 -1 -1 -1 -1 -1 -1 -1 -1 -1 -1 -1 -1 0 -0 -0 -0 -1 -0 -0
8 7 7 7 7 6 6 5 6 5 5 4 4 3 3 3 3 3 3 2 2 2 1 0 -0 -0 -0 -1 -1 -1 -1 -1 -1 -1 -1 -1 -1 -1 -1 -1 -1 -1 -1 -0 -0 -0 -0 -0 -0
8 8 8 7 7 6 6 6 6 6 4 5 4 3 3 3 3 2 2 1 1 2 1 0 -0 -0 -0 -0 -1 -1 -1 -1 -1 -1 -1 -1 -1 -1 -1 -1 -1 -1 -1 -0 -0 -0 0 0 0
7 7 8 8 8 7 7 7 7 5 4 5 5 4 3 3 3 2 2 2 2 1 1 0 0 -0 -0 -0 -0 -0 -1 -1 -1 -1 -1 -0 -1 -1 -1 -1 -1 -1 -0 -0 -0 0 0 1 1
8 9 8 8 8 9 7 9 9 5 6 6 6 5 4 3 2 2 2 2 1 1 1 1 0 -0 0 -0 -0 -0 -1 -1 -1 -1 -1 0 -0 -0 -1 -1 -1 -0 -0 0 0 0 0 1 1
9 8 11 8 8 8 8 10 7 6 7 7 6 6 5 4 2 2 2 1 1 1 1 0 0 0 1 0 -0 -0 -1 -1 -0 -1 -1 0 0 0 -0 -0 -0 -0 1 1 1 2 2 2 2
9 12 11 11 8 8 9 10 7 7 7 7 6 6 6 6 4 2 1 1 1 1 1 1 0 0 0 0 0 -0 -0 -1 -1 -1 -1 -0 0 1 1 0 0 1 1 2 1 2 2 2 2
12 12 11 11 10 10 10 10 8 7 7 7 6 6 6 6 6 4 2 1 1 1 0 0 0 0 -0 0 -0 0 -0 -0 -1 -1 -1 -0 -0 0 1 1 2 3 3 3 3 4 3 3 3
9 10 11 10 10 10 10 10 9 7 7 7 7 6 6 5 4 4 4 2 1 1 1 1 1 0 0 1 1 1 1 0 0 -0 -1 -1 -0 0 1 1 3 4 4 4 5 5 6 7 4
11 11 11 11 10 10 10 10 9 8 8 7 7 6 6 5 5 4 4 4 3 1 1 1 1 1 0 1 1 1 1 0 0 -0 0 -1 -0 0 1 1 3 4 4 4 6 7 7 5 5
11 12 12 12 11 10 11 12 11 9 8 7 7 6 6 6 5 5 5 5 4 4 2 1 1 1 0 0 0 1 1 1 1 1 0 0 0 0 1 2 3 3 4 4 6 6 6 8 9
13 10 10 12 13 14 11 15 11 10 10 9 9 8 7 6 6 6 6 5 5 4 2 3 1 1 0 0 1 1 2 3 1 1 0 1 1 2 2 2 2 3 4 5 5 6 7 8 10
11 9 10 11 12 13 13 14 12 10 11 10 8 8 7 7 6 6 5 5 5 5 5 4 4 2 0 0 1 1 2 2 1 1 1 1 1 1 1 2 3 4 5 5 6 7 8 8 8
9 10 10 11 12 16 13 14 13 11 11 9 8 8 8 7 6 6 6 5 4 3 3 4 5 5 1 1 1 1 2 2 2 2 2 1 2 2 2 2 3 3 4 5 6 6 8 8 8
9 11 14 15 16 17 13 14 13 10 9 9 9 8 8 7 6 6 5 5 4 2 2 2 4 5 3 1 1 1 1 2 2 1 1 2 3 4 2 2 3 3 4 5 6 8 8 8 8
10 10 13 18 16 15 14 16 13 9 8 9 9 8 6 6 6 6 6 5 5 3 3 2 2 4 3 1 1 1 1 1 1 1 1 2 2 3 3 5 5 5 5 6 6 6 8 8 8
11 12 9 13 16 15 13 12 10 9 9 9 9 8 7 6 6 5 5 5 5 4 3 2 2 2 1 1 1 1 1 2 2 2 2 3 4 6 5 5 6 6 6 7 6 7 8 7 7
9 8 13 12 18 17 15 13 13 11 10 8 9 8 7 6 6 6 6 5 5 5 4 2 2 2 2 2 1 1 2 2 2 4 5 5 6 6 7 6 6 6 6 7 6 6 7 8 8
11 11 11 11 12 15 16 14 9 9 8 8 8 7 6 6 6 6 6 6 5 5 4 3 3 3 4 4 4 4 5 5 5 5 6 6 6 6 5 5 6 5 5 6 6 7 8 9 9
9 11 10 13 15 13 13 13 9 9 8 8 7 6 6 6 6 6 6 6 6 5 5 5 4 3 3 4 4 5 6 6 5 6 5 5 5 5 5 6 6 6 7 7 7 8 9 9 11